Volver al catálogo

CSTP-2.11

ActivoCienciaSSO
NORAD 61744·PAYLOAD·🇷🇺 Russia

Lanzado Nov 4, 2024 desde Vostochny Cosmodrome

Loading…

Próximos Pases (próximas 24 horas)

TLE

ActualizadoSource: Space-Track

Época: Sep 14, 2026, 14:11 UTC

1 61744U 24199K   26257.59156117  .00032005  00000-0  44159-3 0  9990
2 61744  97.2774 134.3976 0004574 322.7263  37.3675 15.57127352148257

Sigue CSTP-2.11 en tiempo real con AllMySat

Download on the App Store